Regional Weather Roundup
Issued by NWS

Home | Current Version | Previous Version | Graphics & Text | Print | Product List | Glossary On
Versions: 1 2 3 4 5 6 7 8 9 10 11 12 13 14 15 16 17 18 19 20 21 22 23 24 25 26 27 28 29 30 31 32 33 34 35 36 37 38 39 40 41 42 43 44 45 46 47 48 49 50
000
ASUS43 KDTX 250601
RWRMI
MICHIGAN HOURLY REGIONAL WEATHER ROUNDUP
NATIONAL WEATHER SERVICE DETROIT/PONTIAC MI
200 AM EDT MON JUL 25 2016

NOTE: "FAIR" INDICATES FEW OR NO CLOUDS BELOW 12,000 FEET WITH NO
SIGNIFICANT WEATHER AND/OR OBSTRUCTION TO VISIBILITY.

MIZ047>049-052>055-059>063-066>070-074>076-081>083-250700-
SOUTHEAST LOWER MICHIGAN

CITY           SKY/WX    TMP DP  RH WIND       PRES   REMARKS
ADRIAN         CLOUDY    78  76  93 SW7       29.91S
6HR MIN TEMP:  77; 6HR MAX TEMP:  85;

ALMA           CLOUDY    77  75  92 W13       29.86R
ANN ARBOR      CLOUDY    76  75  97 S6        29.89S
BAD AXE        RAIN      79  73  83 SW10G17   29.82S
CARO           CLOUDY    81  76  83 SW7       29.83R
DETROIT CITY   CLOUDY    80  75  84 SW12      29.87F
6HR MIN TEMP:  78; 6HR MAX TEMP:  83;

DETROIT        CLOUDY    80  73  79 S9        29.89S
6HR MIN TEMP:  77; 6HR MAX TEMP:  83;

FLINT          CLOUDY    83  75  77 SW7       29.86R HX  90
6HR MIN TEMP:  83; 6HR MAX TEMP:  85;

GROSSE ILE     CLOUDY    80  75  84 SW8       29.88S
6HR MIN TEMP:  78; 6HR MAX TEMP:  80;

HOWELL         CLOUDY    80  76  88 SW8       29.88S
6HR MIN TEMP:  79; 6HR MAX TEMP:  83;


CITY           SKY/WX    TMP DP  RH WIND       PRES   REMARKS
JACKSON        CLOUDY    81  77  88 SW13      29.90S
6HR MIN TEMP:  80; 6HR MAX TEMP:  83;

LAMBERTVILLE   CLOUDY    81  74  81 SW7       29.91S
6HR MIN TEMP:  79; 6HR MAX TEMP:  84;

LANSING        CLOUDY    82  75  79 SW12      29.87S
6HR MIN TEMP:  82; 6HR MAX TEMP:  84;

LAPEER         MOCLDY    78  73  83 SW6       29.86S
6HR MIN TEMP:  77; 6HR MAX TEMP:  81;

MASON          CLOUDY    81  75  82 SW7       29.88S
MONROE         CLOUDY    79  75  88 S6        29.89S
6HR MIN TEMP:  78; 6HR MAX TEMP:  80;

MT. CLEMENS    CLOUDY    78  73  87 S7        29.85S
6HR MIN TEMP:  76; 6HR MAX TEMP:  79;

PONTIAC        CLOUDY    78  73  84 SW5       29.88S
6HR MIN TEMP:  77; 6HR MAX TEMP:  83;

PORT HOPE        N/A     78  74  87 VRB5      29.80S
6HR MIN TEMP:  75; 6HR MAX TEMP:  82; 6HR PCP:  0.03;

PORT HURON     CLOUDY    75  72  88 S8        29.86F
TRI CITIES     MOCLDY    78  77  96 SW7       29.84R FOG
6HR MIN TEMP:  77; 6HR MAX TEMP:  83; 6HR PCP:  0.07;

MIDLAND        NOT AVBL
TROY           CLOUDY    80  73  78 SW8       29.89F
SAGINAW HB     CLOUDY    81  75  83 SW10      29.83R
$$
MIZ043>046-050>051-056>058-064>065-071>073-077>080-250700-
SOUTHWEST LOWER MICHIGAN

CITY           SKY/WX    TMP DP  RH WIND       PRES   REMARKS
BATTLE CREEK   LGT RAIN  76  71  85 W14       29.92R
6HR MIN TEMP:  76; 6HR MAX TEMP:  83; 6HR PCP:  0.01;

BENTON HARBOR  CLOUDY    75  66  73 SW9       29.94R
6HR MIN TEMP:  75; 6HR MAX TEMP:  87;

BIG RAPIDS     MOCLDY    73  73 100 W5        29.87R
6HR MIN TEMP:  73; 6HR MAX TEMP:  84; 6HR PCP:  0.20;

COLDWATER      LGT RAIN  78  72  81 SW14      29.93R
6HR MIN TEMP:  78; 6HR MAX TEMP:  85;

FREMONT        FAIR      73  73 100 CALM      29.88R
HOLLAND        CLOUDY    76  69  79 SW13      29.92R
6HR MIN TEMP:  76; 6HR MAX TEMP:  86;

GRAND RAPIDS   CLOUDY    77  67  71 W13       29.88S
6HR MIN TEMP:  77; 6HR MAX TEMP:  85;

IONIA          FAIR      78  66  65 W7        29.86S
6HR MIN TEMP:  78; 6HR MAX TEMP:  84;

KALAMAZOO      LGT RAIN  76  68  76 SW13      29.93R
6HR MIN TEMP:  76; 6HR MAX TEMP:  87; 6HR PCP:  0.02;

LUDINGTON      CLOUDY    75  67  77 W9        29.86R
6HR MIN TEMP:  72; 6HR MAX TEMP:  78;

MARSHALL       CLOUDY    80  79  96 SW7       29.90S
6HR MIN TEMP:  80; 6HR MAX TEMP:  85;

MOUNT PLEASANT MOCLDY    79  76  90 W6        29.84R
6HR MIN TEMP:  79; 6HR MAX TEMP:  85;

MUSKEGON       CLOUDY    75  73  93 SW5       29.89R
6HR MIN TEMP:  74; 6HR MAX TEMP:  83; 6HR PCP:  0.12;

SOUTH HAVEN    CLOUDY    79  66  65 SW9G17    29.92R
$$
MIZ016>042-250700-
NORTHERN LOWER MICHIGAN

CITY           SKY/WX    TMP DP  RH WIND       PRES   REMARKS
ALPENA         MOCLDY    76  72  87 CALM      29.78S
6HR MIN TEMP:  76; 6HR MAX TEMP:  81; 6HR PCP: TRACE;

BEAVER ISLAND  MOCLDY    68  67  99 CALM      29.81S FOG
6HR MIN TEMP:  67; 6HR MAX TEMP:  72;

BELLAIRE       CLOUDY    75  72  90 CALM      29.82R
6HR MIN TEMP:  75; 6HR MAX TEMP:  80;

CADILLAC       CLOUDY    73  71  95 W3        29.86S
CHARLEVOIX     CLOUDY    71  70  97 CALM      29.86R FOG
6HR MIN TEMP:  71; 6HR MAX TEMP:  77;

FRANKFORT      MOCLDY    69  67  93 CALM      29.84R
GAYLORD        CLOUDY    75  71  87 VRB7      29.85R
6HR MIN TEMP:  75; 6HR MAX TEMP:  78; 6HR PCP:  0.08;

GRAYLING       CLOUDY    75  74  97 W5        29.84R FOG
HARBOR SPRINGS FOG       71  70  99 W3        29.82R VSB 1
HOUGHTON LAKE  CLOUDY    76  73  91 W9        29.85R
6HR MIN TEMP:  76; 6HR MAX TEMP:  81;

MANISTEE       CLOUDY    74  68  81 W12       29.84R
OSCODA         CLOUDY    73  72  96 SW7       29.79S
6HR MIN TEMP:  73; 6HR MAX TEMP:  79; 6HR PCP:  0.15;

PELLSTON       MOCLDY    70  69  97 W3        29.81R FOG
6HR MIN TEMP:  70; 6HR MAX TEMP:  76; 6HR PCP:  0.01;

ROGERS CITY    MOCLDY    73  70  91 NW6       29.80S FOG
TRAVERSE CITY  PTCLDY    76  71  85 NW7       29.81R
6HR MIN TEMP:  76; 6HR MAX TEMP:  84;

$$
MIZ007>008-015-250700-
EASTERN UPPER MICHIGAN

CITY           SKY/WX    TMP DP  RH WIND       PRES   REMARKS
KINROSS        FOG       69  69 100 SW3       29.79S VSB 1/2
6HR MIN TEMP:  69; 6HR MAX TEMP:  71; 6HR PCP: TRACE;

MACKINAC ISLAN CLOUDY    69  69 100 W6        29.80R FOG
6HR MIN TEMP:  69; 6HR MAX TEMP:  73; 6HR PCP:  0.01;

NEWBERRY       PTCLDY    66  64  96 W5        29.79F
6HR MIN TEMP:  66; 6HR MAX TEMP:  72;

S. S. MARIE    FOG       69  68  96 W5        29.77S VSB 1/4
6HR MIN TEMP:  68; 6HR MAX TEMP:  73;

$$
MIZ004>006-011>014-085-250700-
CENTRAL UPPER MICHIGAN

CITY           SKY/WX    TMP DP  RH WIND       PRES   REMARKS
MANISTIQUE     CLOUDY    67  65  95 CALM      29.81R
6HR MIN TEMP:  66; 6HR MAX TEMP:  72;

ESCANABA       CLEAR     66  64  94 W6        29.82
MENOMINEE        N/A    N/A N/A N/A MISG        N/A
6HR MIN TEMP:  72; 6HR MAX TEMP:  84;

SAWYER-GWINN   CLEAR     66  60  80 W7        29.85S
6HR MIN TEMP:  66; 6HR MAX TEMP:  76;

$$
MIZ001>003-009>011-084-250700-
WESTERN UPPER MICHIGAN

CITY           SKY/WX    TMP DP  RH WIND       PRES   REMARKS
IRON MOUNTAIN  CLEAR     68  61  78 CALM      29.87R
6HR MIN TEMP:  64; 6HR MAX TEMP:  82;

HOUGHTON       CLEAR     67  59  75 W10       29.81R
6HR MIN TEMP:  67; 6HR MAX TEMP:  76;

COPPER HARBOR    N/A     72  59  63 W6        29.77R
6HR MIN TEMP:  71; 6HR MAX TEMP:  79;

IRONWOOD       CLEAR     66  63  88 W8        29.88R
6HR MIN TEMP:  64; 6HR MAX TEMP:  77;

$$

ABBREVIATIONS USED IN REMARKS
   TC - TEMPERATURE IN CELSIUS
  WCI - WIND CHILL INDEX
   HX - HEAT INDEX
  VSB - VISIBILITY





USA.gov is the U.S. government's official web portal to all federal, state and local government web resources and services.